TimeCEST,TemperatureF,Dew PointF,Humidity,Sea Level PressureIn,VisibilityMPH,Wind Direction,Wind SpeedMPH,Gust SpeedMPH,PrecipitationIn,Events,Conditions,WindDirDegrees,DateUTC
12:00 AM,52,44,68,29.91,,SE,4.5,,,,,130,2014-04-20 22:00:00
1:00 AM,51,46,75,29.92,,SE,6.7,,,,,140,2014-04-20 23:00:00
2:00 AM,50,48,89,29.92,,SSE,4.5,,,,,160,2014-04-21 00:00:00
3:00 AM,49,48,97,29.91,,ESE,4.5,,,,,110,2014-04-21 01:00:00
4:00 AM,50,49,94,29.91,,East,4.5,,,,,80,2014-04-21 02:00:00
5:00 AM,50,49,93,29.90,,East,6.7,,,,,100,2014-04-21 03:00:00
6:00 AM,50,48,90,29.91,,East,6.7,,,,,100,2014-04-21 04:00:00
7:00 AM,50,47,88,29.91,,ESE,4.5,,,,,110,2014-04-21 05:00:00
8:00 AM,54,49,78,29.91,,East,6.7,,,,,100,2014-04-21 06:00:00
9:00 AM,59,52,72,29.91,,East,4.5,,,,,100,2014-04-21 07:00:00
10:00 AM,63,51,57,29.91,,East,6.7,,,,,90,2014-04-21 08:00:00
11:00 AM,64,47,44,29.90,,SE,4.5,,,,,130,2014-04-21 09:00:00
12:00 PM,68,47,36,29.88,,SSE,2.2,,,,,150,2014-04-21 10:00:00
1:00 PM,66,47,39,29.87,,ESE,6.7,,,,,120,2014-04-21 11:00:00
2:00 PM,69,46,33,29.86,,ESE,4.5,,,,,110,2014-04-21 12:00:00
3:00 PM,72,43,25,29.84,,SSW,4.5,,,,,200,2014-04-21 13:00:00
4:00 PM,70,44,28,29.83,,SSE,4.5,,,,,160,2014-04-21 14:00:00
5:00 PM,70,43,26,29.82,,East,4.5,,,,,90,2014-04-21 15:00:00
6:00 PM,70,41,24,29.82,,Calm,Calm,,,,,,2014-04-21 16:00:00
7:00 PM,67,44,31,29.81,,NE,6.7,,,,,50,2014-04-21 17:00:00
8:00 PM,62,45,43,29.82,,East,6.7,,,,,90,2014-04-21 18:00:00
9:00 PM,61,46,48,29.83,,North,2.2,,,,,350,2014-04-21 19:00:00
10:00 PM,57,46,58,29.84,,NNE,6.7,,,,,30,2014-04-21 20:00:00
11:00 PM,57,48,65,29.83,,NE,6.7,,,,,40,2014-04-21 21:00:00